Location: Unspecified
(38.9820°N, 94.4650°W)
Time: 18:44:27
(UTC-05:00)

Resurs 1-4 Rocket - Visible Passes

Search period start: 31 May 2016 00:00
Search period end: 10 June 2016 00:00
Orbit: 800 x 814 km, 98.4° (Epoch: 30 May)

Date Brightness Start Highest point End Pass type
(mag) Time Alt. Az. Time Alt. Az. Time Alt. Az.
31 May 2.5 03:56:30 10° NNE 04:01:47 62° E 04:05:41 18° S visible
01 Jun 3.3 03:32:17 10° NNE 03:37:10 36° E 03:40:52 16° SSE visible
01 Jun 3.3 05:12:23 10° N 05:16:50 27° WNW 05:21:15 10° WSW visible
02 Jun 4.1 03:08:27 10° NE 03:12:28 21° E 03:16:04 12° SE visible
02 Jun 2.6 04:47:25 10° N 04:52:28 45° WNW 04:57:09 12° SW visible
03 Jun 4.6 02:45:36 10° ENE 02:47:40 12° E 02:49:43 10° ESE visible
03 Jun 2.1 04:22:42 10° N 04:28:02 76° WNW 04:32:19 16° SSW visible
04 Jun 2.4 03:58:12 10° NNE 04:03:31 64° ESE 04:07:30 18° S visible
05 Jun 3.3 03:33:58 10° NNE 03:38:54 38° E 03:42:41 16° SSE visible
05 Jun 3.3 05:14:10 10° NNW 05:18:32 26° WNW 05:22:53 10° WSW visible
06 Jun 4.0 03:10:05 10° NE 03:14:12 22° E 03:17:51 12° SE visible
06 Jun 2.7 04:49:11 10° N 04:54:11 43° WNW 04:58:56 11° SW visible
07 Jun 4.5 02:47:05 10° ENE 02:49:25 13° E 02:51:44 10° ESE visible
07 Jun 2.1 04:24:26 10° N 04:29:45 73° WNW 04:34:06 16° SSW visible
08 Jun 2.4 03:59:55 10° NNE 04:05:15 68° ESE 04:09:17 18° S visible
09 Jun 3.2 03:35:39 10° NNE 03:40:38 39° E 03:44:27 16° SSE visible
09 Jun 3.4 05:15:57 10° NNW 05:20:14 25° WNW 05:24:31 10° WSW visible
